1515384000.97,10900,9.0,74126.0,-3.65,-4.69,-4.61,0,*50
1515384002.19,10901,8.94,74122.3,-3.65,-4.61,-4.69,0,*51
1515384003.4,10902,9.0,74124.8,-3.61,-4.65,-4.57,0,*5F
1515384004.6,10903,8.94,74120.3,-3.61,-4.65,-4.57,0,*5E
1515384005.82,10904,9.0,74126.3,-3.61,-4.69,-4.65,0,*54
1515384007.04,10905,8.94,74116.0,-3.65,-4.69,-4.61,0,*55
1515384008.26,10906,8.94,74116.8,-3.65,-4.69,-4.61,0,*56
1515384009.47,10907,8.94,74122.8,-3.65,-4.61,-4.57,0,*5A
1515384010.69,10908,8.94,74120.0,-3.65,-4.69,-4.61,0,*58
1515384011.91,10909,8.94,74122.8,-3.59,-4.61,-4.53,0,*5F
1515384013.11,10910,8.94,74124.0,-3.61,-4.53,-4.53,0,*5D
1515384014.31,10911,9.0,74122.5,-3.61,-4.57,-4.45,0,*5F
1515384015.52,10912,8.94,74120.5,-3.65,-4.57,-4.57,0,*5B
1515384016.72,10913,9.0,74124.3,-3.65,-4.57,-4.57,0,*5A
1515384017.92,10914,8.94,74120.3,-3.65,-4.61,-4.61,0,*5D
1515384019.13,10915,8.94,74122.8,-3.61,-4.57,-4.65,0,*59
1515384020.33,10916,8.94,74122.3,-3.61,-4.65,-4.57,0,*5A
1515384021.53,10917,8.94,74122.0,-3.61,-4.53,-4.57,0,*5E
1515384022.74,10918,8.94,74114.8,-3.61,-4.57,-4.57,0,*55
1515384023.95,10919,8.94,74114.0,-3.61,-4.57,-4.65,0,*55
1515384025.17,10920,8.94,74116.5,-3.59,-4.65,-4.65,0,*55
1515384026.42,10921,9.0,74120.8,-3.61,-4.69,-4.69,0,*5F
1515384027.67,10922,8.94,74122.8,-3.61,-4.89,-4.81,0,*54
1515384028.91,10923,8.94,74120.3,-3.61,-4.81,-4.93,0,*5E
1515384030.15,10924,8.94,74120.3,-3.65,-4.85,-4.93,0,*59
1515384031.4,10925,8.94,74120.8,-3.65,-4.85,-4.85,0,*5F
1515384032.65,10926,9.0,74126.8,-3.65,-4.81,-4.85,0,*58
1515384033.87,10927,8.94,74122.0,-3.65,-4.81,-4.99,0,*54
1515384035.09,10928,8.94,74122.5,-3.65,-4.73,-4.99,0,*56
1515384036.34,10929,9.0,74124.3,-3.61,-4.81,-5.03,0,*5C
1515384037.59,10930,8.94,74126.3,-3.61,-4.81,-5.07,0,*50
1515384038.82,10931,8.94,74122.0,-3.65,-4.99,-5.23,0,*5A
1515384040.06,10932,8.94,74122.0,-3.65,-4.93,-5.31,0,*50
1515384041.29,10933,8.94,74124.0,-3.65,-5.07,-5.39,0,*55
1515384042.52,10934,8.94,74128.3,-3.61,-5.15,-5.47,0,*5C
1515384043.77,10935,8.94,74124.0,-3.65,-5.23,-5.73,0,*5B
1515384045.0,10936,8.94,74130.0,-3.65,-5.31,-5.97,0,*51
1515384046.2,10937,8.94,74124.3,-3.65,-5.47,-6.09,0,*55
1515384047.44,10938,8.94,74126.5,-3.65,-5.73,-6.27,0,*51
1515384048.72,10939,9.0,74128.5,-3.67,-5.89,-6.27,0,*57
1515384049.95,10940,8.94,74126.8,-3.65,-5.89,-6.31,0,*5C
1515384051.16,10941,8.94,74126.3,-3.65,-5.97,-6.31,0,*52
1515384052.38,10942,8.94,74126.5,-3.65,-5.97,-6.27,0,*56
1515384053.61,10943,8.94,74126.3,-3.67,-6.01,-6.31,0,*5E
1515384054.82,10944,8.94,74128.0,-3.65,-6.01,-6.31,0,*5B
1515384056.05,10945,8.94,74128.8,-3.65,-6.09,-6.19,0,*58
1515384057.28,10946,8.94,74128.5,-3.65,-6.01,-6.19,0,*53
1515384058.51,10947,9.0,74132.5,-3.65,-6.01,-6.27,0,*5F
1515384059.71,10948,8.94,74130.5,-3.65,-6.01,-6.39,0,*5F
1515384060.94,10949,8.94,74130.3,-3.65,-6.09,-6.27,0,*59
1515384062.19,10950,8.94,74132.3,-3.67,-6.09,-6.27,0,*53
1515384063.44,10951,8.94,74132.5,-3.67,-6.13,-6.27,0,*59
1515384064.67,10952,8.94,74128.8,-3.61,-6.13,-6.27,0,*5C
1515384065.89,10953,8.94,74132.8,-3.65,-6.27,-6.31,0,*59
1515384067.15,10954,8.94,74134.0,-3.67,-6.27,-6.31,0,*5C
1515384068.4,10955,8.94,74126.3,-3.65,-6.27,-6.19,0,*55
1515384069.65,10956,8.94,74128.0,-3.65,-6.27,-6.19,0,*56
1515384070.87,10957,8.94,74122.0,-3.65,-6.27,-6.09,0,*56
1515384072.09,10958,8.94,74116.0,-3.65,-6.19,-6.09,0,*54
1515384073.32,10959,8.94,74114.5,-3.67,-6.13,-5.97,0,*59
1515384074.52,10960,8.94,74114.0,-3.65,-6.09,-6.01,0,*56
1515384075.74,10961,8.94,74116.3,-3.67,-6.09,-5.97,0,*59
1515384076.94,10962,8.94,74118.3,-3.65,-6.01,-5.97,0,*50
1515384078.14,10963,8.94,74118.5,-3.65,-5.97,-6.01,0,*51
1515384079.34,10964,8.94,74116.0,-3.65,-6.01,-5.97,0,*56
1515384080.54,10965,8.94,74118.0,-3.65,-5.97,-5.97,0,*5B
1515384081.74,10966,8.94,74114.5,-3.65,-5.97,-5.97,0,*58
1515384082.97,10967,8.94,74116.0,-3.65,-5.85,-5.97,0,*5A
1515384084.23,10968,8.94,74118.3,-3.65,-5.85,-5.89,0,*5A
1515384085.47,10969,8.94,74118.3,-3.65,-5.73,-5.73,0,*57
1515384086.72,10970,8.94,74116.8,-3.65,-5.61,-5.73,0,*5C
1515384087.96,10971,9.0,74120.3,-3.65,-5.61,-5.73,0,*5D
1515384089.21,10972,8.94,74116.0,-3.65,-5.65,-5.73,0,*5A
1515384090.44,10973,8.94,74118.3,-3.67,-5.47,-5.47,0,*5E
1515384091.67,10974,8.94,74122.5,-3.67,-5.35,-5.39,0,*55
1515384092.89,10975,8.94,74118.8,-3.67,-5.35,-5.39,0,*54
1515384094.09,10976,8.94,74118.8,-3.65,-5.35,-5.47,0,*5C
1515384095.32,10977,8.94,74120.0,-3.65,-5.31,-5.51,0,*5E
1515384096.55,10978,8.94,74120.5,-3.65,-5.35,-5.61,0,*56
1515384097.78,10979,8.94,74120.5,-3.65,-5.39,-5.65,0,*5F
1515384099.03,10980,8.94,74124.3,-3.67,-5.51,-5.73,0,*52
1515384100.26,10981,8.94,74120.8,-3.65,-5.51,-5.73,0,*51
1515384101.5,10982,8.94,74124.5,-3.65,-5.61,-5.77,0,*55
1515384102.78,10983,8.94,74124.3,-3.67,-5.65,-5.73,0,*56
1515384104.03,10984,8.94,74126.0,-3.65,-5.65,-5.77,0,*57
1515384105.28,10985,8.94,74126.5,-3.65,-5.77,-5.77,0,*55
1515384106.52,10986,8.94,74124.3,-3.65,-5.73,-5.73,0,*56
1515384107.79,10987,8.94,74126.0,-3.67,-5.73,-5.73,0,*55
1515384109.04,10988,8.94,74124.3,-3.65,-5.61,-5.65,0,*5C
1515384110.29,10989,8.94,74126.3,-3.65,-5.61,-5.73,0,*5A
1515384111.54,10990,8.94,74128.3,-3.65,-5.65,-5.89,0,*53
1515384112.76,10991,8.94,74122.3,-3.65,-5.73,-5.97,0,*5A
1515384113.98,10992,8.94,74126.5,-3.65,-5.73,-6.09,0,*5D
1515384115.2,10993,8.94,74122.3,-3.65,-5.89,-6.13,0,*52
1515384116.45,10994,8.94,74124.8,-3.67,-6.01,-6.27,0,*53
1515384117.66,10995,8.94,74130.5,-3.61,-6.09,-6.35,0,*5F
1515384118.86,10996,8.94,74126.5,-3.65,-6.31,-6.51,0,*51
1515384120.07,10997,8.94,74120.3,-3.65,-6.51,-6.43,0,*55
1515384121.28,10998,8.94,74120.0,-3.65,-6.55,-6.43,0,*5E
1515384122.48,10999,8.94,74118.8,-3.65,-6.55,-6.31,0,*5A
1515384123.72,11000,8.94,74120.0,-3.65,-6.51,-6.19,0,*5C
1515384124.91,11001,8.94,74120.0,-3.65,-6.31,-6.09,0,*5A
1515384126.11,11002,8.94,74120.8,-3.65,-6.13,-5.97,0,*5D
1515384127.31,11003,8.94,74126.0,-3.65,-6.09,-5.97,0,*57
1515384128.57,11004,8.94,74126.8,-3.67,-5.97,-5.89,0,*59
1515384129.8,11005,8.94,74128.8,-3.65,-6.01,-5.89,0,*56
1515384131.05,11006,9.0,74128.0,-3.61,-5.85,-5.73,0,*5B
1515384132.28,11007,8.94,74124.3,-3.61,-5.97,-5.69,0,*52
1515384133.51,11008,8.94,74126.0,-3.65,-5.97,-5.65,0,*55
1515384134.76,11009,8.94,74124.8,-3.65,-5.73,-5.61,0,*5A
1515384135.96,11010,8.94,74124.8,-3.65,-5.47,-5.47,0,*51
1515384137.16,11011,8.94,74122.8,-3.65,-5.35,-5.39,0,*5C
1515384138.39,11012,9.0,74128.0,-3.65,-5.31,-5.35,0,*57
1515384139.65,11013,8.94,74122.3,-3.65,-5.23,-5.23,0,*52
1515384140.91,11014,8.94,74118.8,-3.65,-5.23,-5.23,0,*55
1515384142.17,11015,8.94,74122.3,-3.65,-5.19,-5.23,0,*5D
1515384143.43,11016,8.94,74124.0,-3.65,-5.11,-5.23,0,*56
1515384144.68,11017,8.94,74126.8,-3.65,-5.07,-5.19,0,*59
1515384145.94,11018,8.94,74128.0,-3.67,-4.99,-5.07,0,*5D
1515384147.17,11019,8.94,74126.8,-3.65,-4.99,-5.07,0,*5E
1515384148.36,11020,8.94,74130.0,-3.65,-4.99,-4.99,0,*52
1515384149.6,11021,8.94,74128.5,-3.65,-4.85,-4.85,0,*53
1515384150.85,11022,8.94,74126.8,-3.65,-4.81,-4.93,0,*53
1515384152.1,11023,8.94,74126.8,-3.65,-4.85,-4.81,0,*55
1515384153.34,11024,8.94,74122.8,-3.61,-4.77,-4.69,0,*5D
1515384154.58,11025,8.94,74124.3,-3.61,-4.69,-4.77,0,*5C
1515384155.82,11026,8.94,74122.0,-3.61,-4.69,-4.77,0,*5F
1515384157.06,11027,8.94,74116.8,-3.61,-4.77,-4.77,0,*51
1515384158.31,11028,8.94,74116.8,-3.61,-4.69,-4.69,0,*5E
1515384159.55,11029,8.94,74116.5,-3.61,-4.69,-4.69,0,*5F
1515384160.79,11030,8.94,74112.5,-3.61,-4.69,-4.77,0,*58
1515384162.04,11031,8.94,74116.3,-3.61,-4.69,-4.81,0,*50
1515384163.28,11032,8.94,74122.3,-3.65,-4.81,-4.85,0,*55
1515384164.53,11033,8.94,74126.0,-3.65,-4.85,-4.85,0,*50
1515384165.78,11034,8.94,74126.5,-3.65,-4.81,-4.85,0,*53
1515384167.02,11035,8.94,74118.5,-3.61,-4.77,-4.89,0,*53
1515384168.27,11036,8.94,74122.0,-3.65,-4.81,-4.93,0,*56
1515384169.52,11037,8.94,74118.3,-3.65,-4.81,-4.85,0,*50
1515384170.77,11038,8.94,74118.3,-3.65,-4.81,-4.85,0,*5F
1515384172.01,11039,8.94,74126.0,-3.65,-4.93,-4.93,0,*5A
1515384173.25,11040,8.94,74124.3,-3.65,-4.85,-4.93,0,*53
1515384174.5,11041,8.94,74124.8,-3.65,-4.93,-4.85,0,*52
1515384175.74,11042,8.94,74126.0,-3.65,-4.81,-4.85,0,*52
1515384176.99,11043,8.94,74122.5,-3.65,-4.85,-4.81,0,*53
1515384178.24,11044,8.94,74122.3,-3.65,-4.81,-4.73,0,*5D
1515384179.48,11045,8.94,74120.0,-3.65,-4.73,-4.73,0,*51
1515384180.73,11046,8.94,74122.0,-3.65,-4.85,-4.81,0,*56
1515384181.97,11047,8.94,74122.5,-3.65,-4.81,-4.73,0,*5E
1515384183.22,11048,8.94,74120.8,-3.65,-4.73,-4.73,0,*5C
1515384184.46,11049,8.94,74124.5,-3.61,-4.77,-4.77,0,*59
1515384185.7,11050,8.94,74126.3,-3.61,-4.77,-4.77,0,*51
1515384186.95,11051,8.94,74116.8,-3.61,-4.77,-4.89,0,*51
1515384188.19,11052,8.94,74116.5,-3.65,-4.81,-4.85,0,*53
1515384189.44,11053,8.94,74120.8,-3.61,-4.77,-4.89,0,*53
1515384190.69,11054,8.94,74116.0,-3.61,-4.81,-4.89,0,*5D
1515384191.94,11055,8.94,74122.5,-3.61,-4.81,-4.89,0,*5C
1515384193.18,11056,8.94,74122.5,-3.61,-4.81,-4.89,0,*5F
1515384194.44,11057,8.94,74124.5,-3.61,-4.89,-4.89,0,*56
1515384195.68,11058,8.94,74122.5,-3.61,-4.81,-4.93,0,*5A
1515384196.93,11059,8.94,74126.3,-3.61,-4.81,-4.89,0,*50
1515384198.18,11060,8.94,74124.3,-3.61,-4.81,-4.89,0,*5A
1515384199.42,11061,8.94,74122.3,-3.61,-4.77,-4.93,0,*59
1515384200.69,11062,8.94,74118.5,-3.59,-4.73,-4.85,0,*52
1515384201.94,11063,8.94,74118.3,-3.61,-4.81,-4.89,0,*59
1515384203.19,11064,8.94,74120.3,-3.61,-4.81,-5.03,0,*5D
1515384204.43,11065,8.94,74122.3,-3.61,-4.81,-4.93,0,*54
1515384205.68,11066,8.94,74120.3,-3.61,-4.81,-4.89,0,*5C
1515384206.93,11067,8.94,74122.0,-3.61,-4.81,-4.89,0,*5D
1515384208.18,11068,8.94,74122.3,-3.61,-4.89,-4.81,0,*52
1515384209.42,11069,8.94,74124.0,-3.61,-4.77,-4.81,0,*52
1515384210.67,11070,8.94,74124.8,-3.61,-4.77,-4.89,0,*52
1515384211.94,11071,8.94,74120.3,-3.59,-4.73,-4.77,0,*5D
1515384213.19,11072,8.94,74120.3,-3.61,-4.89,-4.89,0,*51
1515384214.44,11073,8.94,74122.8,-3.61,-4.81,-4.89,0,*58
1515384215.68,11074,8.94,74122.5,-3.61,-4.81,-4.93,0,*54
1515384216.95,11075,8.94,74120.5,-3.59,-4.77,-4.85,0,*50
1515384218.2,11076,8.94,74124.8,-3.61,-4.81,-4.89,0,*5D
1515384219.44,11077,8.94,74120.3,-3.61,-4.81,-4.89,0,*5C
1515384220.69,11078,8.94,74120.0,-3.61,-4.81,-4.81,0,*5B
1515384221.94,11079,8.94,74118.8,-3.61,-4.81,-4.81,0,*5A
1515384223.19,11080,8.94,74120.0,-3.61,-4.81,-4.81,0,*5C
1515384224.43,11081,8.94,74118.8,-3.61,-4.77,-4.81,0,*54
1515384225.69,11082,8.94,74122.3,-3.59,-4.77,-4.77,0,*55
1515384226.94,11083,8.94,74122.0,-3.61,-4.77,-4.69,0,*50
1515384228.19,11084,8.94,74122.5,-3.59,-4.73,-4.65,0,*54
1515384229.43,11085,8.94,74118.8,-3.61,-4.77,-4.77,0,*59
1515384230.67,11086,8.94,74118.5,-3.61,-4.69,-4.69,0,*5A
1515384231.94,11087,8.94,74122.5,-3.59,-4.73,-4.73,0,*50
1515384233.19,11088,8.94,74118.3,-3.61,-4.81,-4.89,0,*5C
1515384234.46,11089,8.94,74122.0,-3.59,-4.77,-4.89,0,*5F
1515384235.72,11090,8.94,74122.8,-3.59,-4.85,-4.85,0,*56
1515384236.98,11091,8.94,74120.3,-3.61,-4.89,-4.89,0,*5C
1515384238.21,11092,8.94,74120.0,-3.59,-4.77,-4.99,0,*54
1515384239.47,11093,8.94,74118.8,-3.61,-4.89,-5.15,0,*5A
1515384240.74,11094,8.94,74118.5,-3.59,-4.89,-5.11,0,*52
1515384242.02,11095,8.94,74122.5,-3.59,-5.03,-5.27,0,*55
1515384243.28,11096,8.94,74120.8,-3.59,-5.23,-5.55,0,*51
1515384244.51,11097,8.94,74116.8,-3.61,-5.35,-5.81,0,*55
1515384245.71,11098,8.94,74120.3,-3.61,-5.55,-5.97,0,*5B
1515384246.97,11099,8.94,74122.0,-3.59,-5.55,-5.93,0,*55
1515384248.19,11100,8.94,74120.0,-3.61,-5.69,-6.05,0,*5C
1515384249.41,11101,8.94,74120.0,-3.61,-5.61,-6.09,0,*59
1515384250.64,11102,8.94,74114.3,-3.61,-5.69,-6.47,0,*58
1515384251.86,11103,8.94,74112.8,-3.61,-5.73,-6.59,0,*5D
1515384253.11,11104,8.94,74112.8,-3.61,-5.81,-6.63,0,*5E
1515384254.36,11105,8.94,74112.5,-3.59,-5.81,-6.73,0,*55
1515384255.59,11106,8.94,74120.5,-3.59,-6.01,-7.11,0,*58
1515384256.84,11107,8.94,74120.8,-3.59,-6.31,-7.27,0,*5F
1515384258.04,11108,8.94,74116.5,-3.61,-6.43,-7.49,0,*56
1515384259.27,11109,8.94,74120.3,-3.61,-6.69,-7.61,0,*55
1515384260.52,11110,8.94,74122.5,-3.61,-7.01,-8.07,0,*5D
1515384261.78,11111,8.94,74122.0,-3.61,-7.57,-8.51,0,*5C
1515384262.98,11112,8.94,74126.0,-3.61,-8.17,-8.85,0,*5D
1515384264.2,11113,8.94,74126.0,-3.61,-8.21,-8.81,0,*5D
1515384265.45,11114,8.94,74126.5,-3.61,-8.07,-8.51,0,*53
1515384266.67,11115,8.94,74128.3,-3.61,-7.77,-8.33,0,*5E
1515384267.86,11116,8.94,74126.8,-3.61,-7.53,-8.25,0,*5C
1515384269.11,11117,8.94,74124.3,-3.59,-7.39,-8.21,0,*5E
1515384270.34,11118,8.94,74126.8,-3.59,-7.39,-8.29,0,*59
1515384271.59,11119,8.94,74126.8,-3.59,-7.39,-7.83,0,*57
1515384272.81,11120,8.94,74124.5,-3.59,-7.23,-7.53,0,*5B
1515384274.06,11121,8.94,74126.8,-3.61,-7.01,-7.27,0,*52
1515384275.26,11122,8.94,74124.3,-3.61,-6.73,-6.89,0,*50
1515384276.46,11123,8.94,74122.8,-3.61,-6.51,-6.77,0,*50
1515384277.67,11124,8.94,74126.8,-3.61,-6.35,-6.77,0,*55
1515384278.87,11125,8.94,74126.8,-3.61,-6.13,-6.59,0,*5C
1515384280.1,11126,8.94,74126.8,-3.59,-6.01,-6.43,0,*5C
1515384281.3,11127,8.94,74128.5,-3.61,-6.05,-6.35,0,*53
1515384282.52,11128,8.94,74126.5,-3.61,-6.05,-6.23,0,*5B
1515384283.74,11129,8.94,74120.8,-3.61,-5.93,-6.09,0,*5E
1515384285.02,11130,8.94,74124.3,-3.59,-5.69,-5.93,0,*58
1515384286.29,11131,8.94,74120.0,-3.59,-5.65,-5.77,0,*5F
1515384287.54,11132,8.94,74124.5,-3.61,-5.69,-5.69,0,*54
1515384288.78,11133,8.94,74122.8,-3.61,-5.55,-5.69,0,*5A
1515384290.01,11134,8.94,74124.8,-3.59,-5.39,-5.55,0,*53
1515384291.21,11135,8.94,74126.0,-3.61,-5.35,-5.55,0,*55
1515384292.47,11136,8.94,74126.5,-3.59,-5.31,-5.51,0,*5D
1515384293.7,11137,8.94,74124.0,-3.61,-5.35,-5.61,0,*50
1515384294.95,11138,8.94,74124.8,-3.59,-5.31,-5.51,0,*53
1515384296.21,11139,8.94,74126.3,-3.59,-5.23,-5.51,0,*51
1515384297.46,11140,8.94,74126.3,-3.59,-5.31,-5.55,0,*58
1515384298.72,11141,8.94,74126.5,-3.59,-5.31,-5.51,0,*5D
1515384299.99,11142,8.94,74126.8,-3.59,-5.27,-5.69,0,*52
1515384301.24,11143,8.94,74124.5,-3.59,-5.39,-5.65,0,*50
1515384302.52,11144,8.94,74128.3,-3.59,-5.31,-5.69,0,*53
1515384303.8,11145,8.94,74126.0,-3.59,-5.31,-5.69,0,*52
1515384305.05,11146,8.94,74132.5,-3.59,-5.51,-5.69,0,*57
1515384306.3,11147,8.94,74130.3,-3.59,-5.51,-5.69,0,*56
1515384307.56,11148,8.94,74128.8,-3.59,-5.55,-5.81,0,*5B
1515384308.84,11149,8.94,74130.8,-3.59,-5.65,-5.89,0,*51
1515384310.11,11150,8.94,74132.3,-3.59,-5.77,-5.89,0,*5A
1515384311.39,11151,8.94,74132.3,-3.59,-5.69,-5.89,0,*54
1515384312.67,11152,8.94,74132.0,-3.59,-5.69,-5.89,0,*57
1515384313.9,11153,8.94,74126.0,-3.61,-5.85,-5.97,0,*50
1515384315.14,11154,8.94,74130.3,-3.59,-5.77,-6.05,0,*59
1515384316.4,11155,8.94,74132.3,-3.59,-5.93,-6.43,0,*50
1515384317.64,11156,8.94,74130.0,-3.59,-6.23,-6.73,0,*58
1515384318.89,11157,8.94,74130.3,-3.59,-6.47,-6.97,0,*51
1515384320.12,11158,8.94,74132.5,-3.59,-6.59,-7.15,0,*5A
1515384321.37,11159,8.94,74130.8,-3.59,-6.85,-7.61,0,*59
1515384322.64,11160,8.94,74134.5,-3.59,-7.39,-8.07,0,*5A
1515384323.88,11161,8.94,74130.5,-3.59,-8.03,-8.59,0,*56
1515384325.1,11162,8.94,74128.0,-3.59,-8.63,-8.55,0,*5F
1515384326.3,11163,8.94,74130.8,-3.61,-8.59,-8.21,0,*5F
1515384327.56,11164,8.94,74130.5,-3.59,-8.59,-8.07,0,*57
1515384328.78,11165,8.94,74128.8,-3.59,-8.63,-8.29,0,*53
1515384329.99,11166,8.94,74134.0,-3.61,-8.93,-8.37,0,*5B
1515384331.25,11167,8.94,74132.8,-3.61,-9.15,-8.51,0,*55
1515384332.47,11168,8.94,74130.0,-3.61,-9.83,-8.89,0,*50
1515384333.68,11169,8.94,74130.5,-3.61,-9.97,-8.51,0,*51
1515384334.88,11170,8.94,74130.3,-3.61,-9.97,-8.37,0,*59
1515384336.08,11171,8.94,74128.3,-3.61,-9.97,-8.21,0,*5F
1515384337.29,11172,8.94,74130.3,-3.61,-9.89,-7.95,0,*53
1515384338.54,11173,8.94,74128.0,-3.61,-9.53,-7.57,0,*5B
1515384339.77,11174,8.94,74132.8,-3.61,-9.27,-7.39,0,*57
1515384341.0,11175,8.94,74128.3,-3.61,-9.15,-7.19,0,*55
1515384342.21,11176,9.0,74134.5,-3.61,-8.93,-6.85,0,*5D
1515384343.41,11177,8.94,74132.0,-3.61,-8.59,-6.73,0,*53
1515384344.63,11178,8.94,74130.3,-3.57,-8.21,-6.23,0,*53
1515384345.87,11179,8.94,74122.3,-3.59,-7.77,-6.01,0,*50
1515384347.09,11180,8.94,74126.8,-3.61,-7.53,-5.73,0,*5D
1515384348.32,11181,8.94,74126.0,-3.59,-7.23,-5.51,0,*50
1515384349.54,11182,8.94,74128.5,-3.61,-7.01,-5.47,0,*5F
1515384350.8,11183,8.94,74126.0,-3.59,-6.59,-5.27,0,*5F
1515384352.05,11184,8.94,74124.3,-3.61,-6.27,-5.15,0,*5B
1515384353.3,11185,8.94,74124.0,-3.59,-6.01,-5.11,0,*51
1515384354.56,11186,8.94,74120.8,-3.61,-5.73,-5.07,0,*58
1515384355.77,11187,8.94,74122.3,-3.59,-5.43,-4.99,0,*57
1515384357.03,11188,8.94,74124.5,-3.61,-5.31,-4.93,0,*5C
1515384358.3,11189,8.94,74122.0,-3.59,-5.15,-4.85,0,*57
1515384359.56,11190,8.94,74120.8,-3.61,-5.15,-4.77,0,*59
1515384360.83,11191,8.94,74120.8,-3.59,-4.89,-4.73,0,*53
1515384362.08,11192,8.94,74120.3,-3.59,-4.89,-4.65,0,*57
1515384363.33,11193,8.94,74122.5,-3.61,-5.03,-4.69,0,*52
1515384364.58,11194,8.94,74122.3,-3.59,-4.77,-4.65,0,*50
1515384365.84,11195,8.94,74122.5,-3.59,-4.85,-4.73,0,*5B
1515384367.09,11196,8.94,74122.5,-3.61,-4.77,-4.69,0,*55
1515384368.31,11197,8.94,74120.8,-3.59,-4.65,-4.61,0,*54
1515384369.52,11198,8.94,74120.3,-3.57,-4.65,-4.61,0,*55
1515384370.76,11199,8.94,74120.8,-3.59,-4.73,-4.53,0,*5C
1515384371.99,11200,8.94,74120.0,-3.59,-4.65,-4.53,0,*58
1515384373.21,11201,8.94,74122.0,-3.59,-4.61,-4.53,0,*5D
1515384374.44,11202,8.94,74120.3,-3.59,-4.61,-4.61,0,*5F
1515384375.64,11203,8.94,74120.0,-3.57,-4.61,-4.61,0,*50
1515384376.86,11204,8.94,74122.8,-3.59,-4.61,-4.61,0,*59
1515384378.09,11205,8.94,74120.8,-3.59,-4.53,-4.53,0,*58
1515384379.31,11206,8.94,74124.8,-3.59,-4.61,-4.53,0,*5A
1515384380.54,11207,8.94,74120.5,-3.59,-4.61,-4.61,0,*5A
1515384381.76,11208,8.94,74122.0,-3.59,-4.61,-4.61,0,*55
1515384382.99,11209,8.94,74126.3,-3.59,-4.61,-4.53,0,*55
1515384384.21,11210,8.94,74120.3,-3.59,-4.61,-4.53,0,*5D
1515384385.44,11211,8.94,74120.8,-3.59,-4.53,-4.53,0,*5D
1515384386.66,11212,8.94,74122.3,-3.59,-4.53,-4.53,0,*5E
1515384387.87,11213,8.94,74122.5,-3.61,-4.57,-4.57,0,*54
1515384389.09,11214,8.94,74124.5,-3.59,-4.53,-4.49,0,*53
1515384390.31,11215,8.94,74126.0,-3.59,-4.53,-4.53,0,*59
1515384391.54,11216,8.94,74122.8,-3.59,-4.61,-4.53,0,*5B
1515384392.73,11217,8.94,74122.3,-3.61,-4.53,-4.53,0,*50
1515384393.96,11218,8.94,74124.0,-3.59,-4.61,-4.65,0,*50
1515384395.16,11219,8.94,74122.0,-3.57,-4.61,-4.61,0,*5B
1515384396.36,11220,8.94,74124.5,-3.57,-4.53,-4.53,0,*51
1515384397.56,11221,8.94,74122.3,-3.57,-4.53,-4.61,0,*51
1515384398.76,11222,8.94,74128.8,-3.57,-4.53,-4.61,0,*52
1515384399.96,11223,8.94,74124.5,-3.57,-4.61,-4.53,0,*53
1515384401.19,11224,8.94,74128.3,-3.59,-4.65,-4.65,0,*5B
1515384402.42,11225,8.94,74124.5,-3.59,-4.61,-4.65,0,*5E
1515384403.64,11226,8.94,74126.8,-3.59,-4.65,-4.65,0,*59
1515384404.89,11227,8.94,74126.3,-3.59,-4.65,-4.73,0,*5F
1515384406.16,11228,8.94,74124.5,-3.59,-4.73,-4.73,0,*57
1515384407.43,11229,8.94,74124.5,-3.59,-4.73,-4.77,0,*52
1515384408.67,11230,8.94,74124.8,-3.57,-4.73,-4.73,0,*50
1515384409.92,11231,8.94,74126.8,-3.59,-4.73,-4.65,0,*58
1515384411.17,11232,8.94,74128.0,-3.59,-4.65,-4.73,0,*5B
1515384412.43,11233,8.94,74124.5,-3.59,-4.77,-4.77,0,*5D
1515384413.69,11234,8.94,74124.8,-3.59,-4.77,-4.77,0,*5A
1515384414.94,11235,8.94,74122.5,-3.57,-4.77,-4.77,0,*55
1515384416.18,11236,8.94,74122.8,-3.57,-4.73,-4.77,0,*52
1515384417.42,11237,8.94,74118.0,-3.57,-4.73,-4.77,0,*53
1515384418.67,11238,8.94,74122.0,-3.57,-4.73,-4.77,0,*5C
1515384419.92,11239,8.94,74124.0,-3.57,-4.73,-4.85,0,*50
1515384421.17,11240,8.94,74122.8,-3.57,-4.73,-4.85,0,*5E
1515384422.41,11241,8.94,74122.5,-3.57,-4.77,-4.85,0,*5B
1515384423.68,11242,8.94,74126.8,-3.59,-4.77,-4.89,0,*5A
1515384424.93,11243,8.94,74126.3,-3.57,-4.85,-4.89,0,*58
1515384426.16,11244,8.94,74120.0,-3.59,-4.85,-4.99,0,*50
1515384427.43,11245,8.94,74124.0,-3.59,-4.77,-4.85,0,*51
1515384428.68,11246,8.94,74124.0,-3.57,-4.73,-4.77,0,*55
1515384429.95,11247,8.94,74126.5,-3.59,-4.73,-4.85,0,*57
1515384431.19,11248,8.94,74124.5,-3.57,-4.85,-4.85,0,*5F
1515384432.44,11249,8.94,74120.3,-3.57,-4.77,-4.85,0,*53
1515384433.71,11250,8.94,74126.0,-3.59,-4.85,-4.89,0,*54
1515384434.95,11251,8.94,74126.3,-3.59,-4.85,-4.99,0,*54
1515384436.22,11252,8.94,74124.3,-3.59,-4.85,-4.89,0,*56
1515384437.49,11253,8.94,74124.5,-3.59,-4.85,-4.89,0,*57
1515384438.76,11254,8.94,74126.5,-3.59,-4.85,-4.89,0,*50
1515384440.02,11255,8.94,74126.8,-3.59,-4.77,-4.89,0,*5C
1515384441.29,11256,8.94,74128.3,-3.59,-4.77,-4.89,0,*5F
1515384442.54,11257,8.94,74124.3,-3.61,-4.89,-4.89,0,*54
1515384443.79,11258,8.94,74126.3,-3.61,-4.89,-4.93,0,*50
1515384445.06,11259,8.94,74124.8,-3.59,-4.85,-4.85,0,*51
1515384446.33,11260,8.94,74126.0,-3.59,-4.77,-4.89,0,*5A
1515384447.61,11261,8.94,74126.0,-3.59,-4.89,-4.89,0,*5A
1515384448.85,11262,8.94,74124.5,-3.61,-4.81,-4.93,0,*51
1515384450.1,11263,8.94,74124.0,-3.61,-4.89,-4.93,0,*58
1515384451.34,11264,8.94,74130.3,-3.61,-4.81,-4.93,0,*57
1515384452.59,11265,8.94,74128.3,-3.61,-4.89,-4.89,0,*55
1515384453.84,11266,8.94,74122.8,-3.61,-4.81,-4.89,0,*5E
1515384455.11,11267,8.94,74126.5,-3.59,-4.73,-4.89,0,*59
1515384456.37,11268,8.94,74126.3,-3.61,-4.89,-5.03,0,*5B
1515384457.62,11269,8.94,74126.8,-3.61,-4.93,-5.07,0,*55
1515384458.9,11270,8.94,74126.0,-3.59,-4.89,-5.03,0,*59
1515384460.15,11271,8.94,74130.0,-3.59,-4.99,-5.03,0,*59
1515384461.4,11272,8.94,74126.8,-3.61,-5.07,-5.15,0,*50
1515384462.68,11273,8.94,74126.8,-3.59,-5.03,-5.11,0,*5A
1515384463.95,11274,8.94,74126.0,-3.59,-5.11,-5.11,0,*5E
1515384465.21,11275,8.94,74128.0,-3.61,-5.15,-5.15,0,*54
1515384466.47,11276,8.94,74130.3,-3.61,-5.15,-5.07,0,*54
1515384467.73,11277,8.94,74124.3,-3.61,-5.15,-5.07,0,*55
1515384468.98,11278,8.94,74128.5,-3.59,-5.15,-4.99,0,*57
1515384470.26,11279,8.94,74126.3,-3.59,-5.15,-5.03,0,*54
1515384471.54,11280,8.94,74122.5,-3.59,-5.03,-4.93,0,*5D
1515384472.81,11281,8.94,74126.3,-3.59,-5.11,-4.89,0,*54
1515384474.06,11282,8.94,74122.8,-3.59,-4.99,-5.03,0,*55
1515384475.3,11283,8.94,74122.0,-3.59,-4.99,-5.11,0,*57
1515384476.55,11284,8.94,74124.0,-3.59,-4.99,-5.11,0,*50
1515384477.83,11285,8.94,74126.0,-3.59,-5.03,-5.11,0,*53
1515384479.08,11286,8.94,74128.0,-3.59,-4.99,-5.11,0,*52
1515384480.35,11287,8.94,74130.3,-3.59,-4.89,-5.15,0,*56
1515384481.6,11288,8.94,74130.8,-3.59,-4.99,-5.23,0,*5D
1515384482.88,11289,8.94,74126.8,-3.59,-4.89,-5.31,0,*5E
1515384484.13,11290,8.94,74130.3,-3.59,-5.03,-5.43,0,*50
1515384485.38,11291,8.94,74128.5,-3.59,-5.11,-5.55,0,*55
1515384486.63,11292,8.94,74130.3,-3.59,-5.11,-5.55,0,*56
1515384487.91,11293,8.94,74130.5,-3.59,-5.23,-5.65,0,*55
1515384489.19,11294,8.94,74128.8,-3.59,-5.23,-5.69,0,*5E
1515384490.42,11295,8.94,74128.0,-3.61,-5.47,-5.85,0,*54
1515384491.65,11296,8.94,74124.8,-3.61,-5.47,-5.93,0,*50
1515384492.9,11297,8.94,74128.3,-3.59,-5.51,-5.93,0,*5D
1515384494.13,11298,8.94,74124.3,-3.61,-5.55,-5.93,0,*5D
1515384495.34,11299,8.94,74128.3,-3.61,-5.55,-5.97,0,*58
1515384496.56,11300,8.94,74126.0,-3.59,-5.55,-6.05,0,*5A
1515384497.8,11301,8.94,74128.5,-3.61,-5.73,-6.27,0,*54
1515384499.06,11302,8.94,74126.3,-3.59,-5.69,-6.35,0,*54
1515384500.28,11303,8.94,74124.5,-3.61,-5.73,-6.47,0,*50
1515384501.53,11304,8.94,74130.3,-3.59,-5.77,-6.73,0,*5F
1515384502.75,11305,8.94,74124.3,-3.61,-5.81,-6.85,0,*55
1515384503.95,11306,8.94,74126.8,-3.61,-6.05,-7.15,0,*51
1515384505.2,11307,8.94,74126.8,-3.61,-6.23,-7.31,0,*52
1515384506.43,11308,8.94,74128.8,-3.61,-6.35,-7.31,0,*5A
1515384507.63,11309,8.94,74126.0,-3.61,-6.35,-7.19,0,*51
1515384508.84,11310,8.94,74130.0,-3.61,-6.47,-7.19,0,*5C
1515384510.04,11311,8.94,74128.3,-3.61,-6.47,-7.15,0,*51
1515384511.26,11312,8.94,74128.5,-3.61,-6.47,-7.01,0,*57
1515384512.46,11313,8.94,74130.3,-3.61,-6.47,-6.77,0,*56
1515384513.7,11314,8.94,74130.3,-3.61,-6.27,-6.63,0,*52
1515384514.93,11315,8.94,74130.3,-3.61,-6.23,-6.59,0,*5E
1515384516.16,11316,8.94,74130.5,-3.59,-6.09,-6.47,0,*51
1515384517.38,11317,8.94,74130.5,-3.59,-6.05,-6.35,0,*59
1515384518.59,11318,8.94,74130.8,-3.61,-6.09,-6.35,0,*51
1515384519.79,11319,8.94,74128.5,-3.61,-6.05,-6.35,0,*5C
1515384520.99,11320,8.94,74130.5,-3.61,-6.09,-6.39,0,*56